Regional Weather Roundup
Issued by NWS Green Bay, WI

Home | Current Version | Previous Version | Graphics & Text | Print | Product List | Glossary Off
Versions: 1 2 3 4 5 6 7 8 9 10 11 12 13 14 15 16 17 18 19 20 21 22 23 24 25 26 27 28 29 30 31 32 33 34 35 36 37 38 39 40 41 42 43 44 45 46 47 48 49 50

000
ASUS43 KGRB 300011
RWRGRB

NORTH-CENTRAL AND NORTHEAST WISCONSIN REGIONAL WEATHER ROUNDUP
NATIONAL WEATHER SERVICE GREEN BAY WI
700 PM CDT FRI JUL 29 2016

WIZ005-009-010>012-018-019-300100-
NORTH CENTRAL WISCONSIN

CITY           SKY/WX    TMP DP  RH WIND       PRES   REMARKS
IRONWOOD       SUNNY     70  55  60 N8        30.04S
MANITOWISH WTR SUNNY     74  52  46 CALM      30.05S
ARBOR VITAE    SUNNY     77  55  46 N3        30.05S
EAGLE RIVER    PTSUNNY   74  54  49 E6        30.05S
LAND O LAKES   SUNNY     75  53  45 NE3       30.06S
RHINELANDER    CLOUDY    72  58  61 SE6       30.06R
PHILLIPS       SUNNY     75  56  51 NE5       30.04S
ANTIGO         CLOUDY    69  59  72 SE3       30.07R
TOMAHAWK       MOSUNNY   73  60  63 SE3       30.05S
MERRILL        MOSUNNY   72  61  68 SE6       30.05S
$$

WIZ013-073-300100-
NORTHEAST WISCONSIN

CITY           SKY/WX    TMP DP  RH WIND       PRES   REMARKS
IRON MOUNTAIN  PTSUNNY   74  54  49 E3        30.04R
MARINETTE      SUNNY    N/A N/A N/A E8        30.05R
OCONTO         CLOUDY    72  58  61 NE7       30.03S
$$

WIZ017-030-035>037-045-300100-
CENTRAL WISCONSIN

CITY           SKY/WX    TMP DP  RH WIND       PRES   REMARKS
MEDFORD        SUNNY     72  62  71 E3        30.05R
WAUSAU         CLOUDY    71  61  70 E7        30.03S
MOSINEE        PTSUNNY   72  63  73 E6        30.05S
MARSHFIELD     CLOUDY    73  60  63 E6        30.03S
WISC RAPIDS    CLOUDY    71  62  73 E5        30.04S
STEVENS POINT  DRIZZLE   68  63  82 CALM      30.04R
WAUPACA        CLOUDY    74  63  67 CALM      30.03R
SHAWANO        CLOUDY    73  58  58 E7        30.04S
CLINTONVILLE   CLOUDY    72  57  60 E6        30.03S
WAUTOMA        CLOUDY    71  65  81 N5        30.02S
$$

WIZ038-039-048-051-300100-
FOX VALLEY

CITY           SKY/WX    TMP DP  RH WIND       PRES   REMARKS
NWS GREEN BAY  PTSUNNY   72  57  59 E8        30.02S
APPLETON       CLOUDY    73  57  56 NE8       30.01R
OSHKOSH        CLOUDY    73  60  63 E7        30.01R
FOND DU LAC    CLOUDY    74  62  66 NE9       30.01R
$$

WIZ022-050-052-300100-
EAST CENTRAL WISCONSIN

CITY           SKY/WX    TMP DP  RH WIND       PRES   REMARKS
EPHRAIM        FAIR      72  55  55 E6        30.04R
WASHINGTON ISL NOT AVBL
STURGEON BAY   CLOUDY    71  56  58 NE8       30.04S
MANITOWOC      CLOUDY    71  59  65 NE9       30.02R
SHEBOYGAN      MOSUNNY   69  60  73 NE13      30.01R
$$

LMZ563-521-522-541>543-300100-
LAKESHORE

STATION/POSITION TIME  TEMP    WIND        PRES    VSBY  WAVE
                       AIR SEA DIR/SP/G                  HT/PER
                 (UTC) (F)     (DEG/KT/KT) (MB)    (MI)  (FT/S)
SHEBOYGAN LKSHOR 0000   65     350/ 12/ 13 1016.1S
ALGOMA MARINA    2328           80/ 14/ 16   N/A
NORTHPORT PIER   2300   72      70/  8/ 12 1016.9R
N MID LAKE BUOY  2350   71 70   80/ 10/ 12 1016.5R         1/ 3
S GREEN BAY BUOY 2300   71 71   60/ 10/ 12 1016.4R
SISTER BAY LKSHO 2321   76      80/  6/ 10   N/A
CHAMBERS ISLAND  2300   73      40/  8/ 10 1016.9S
$$



USA.gov is the U.S. government's official web portal to all federal, state and local government web resources and services.